Regional Weather Roundup
Issued by NWS

Home | Current Version | Previous Version | Graphics & Text | Print | Product List | Glossary On
Versions: 1 2 3 4 5 6 7 8 9 10 11 12 13 14 15 16 17 18 19 20 21 22 23 24 25 26 27 28 29 30 31 32 33 34 35 36 37 38 39 40 41 42 43 44 45 46 47 48 49 50
867
ASUS43 KMPX 301401
RWRMN
WEATHER ROUNDUP FOR MINNESOTA
NATIONAL WEATHER SERVICE TWIN CITIES/CHANHASSEN MN
900 AM CDT SAT JUL 30 2016


NOTE: "FAIR" INDICATES FEW OR NO CLOUDS BELOW 12,000 FEET WITH NO
SIGNIFICANT WEATHER AND/OR OBSTRUCTIONS TO VISIBILITY. N/A MEANS
CURRENT SKY AND/OR WEATHER CONDITIONS ARE NOT AVAILABLE.

MNZ060>063-068>070-301500-
   Twin Cities Metro

CITY           SKY/WX    TMP DP  RH WIND       PRES   REMARKS
TWIN CITIES    CLOUDY    69  62  78 E7        30.03F
ST PAUL        CLOUDY    70  64  81 SE7       30.04S
CRYSTAL        CLOUDY    68  60  75 CALM      30.02F
LAKEVILLE      CLOUDY    66  64  94 E3        30.04S
EDEN PRAIRIE   PTSUNNY   70  62  76 E5        30.02F
LAKEVILLE      CLOUDY    66  64  94 E3        30.04S
SOUTH ST PAUL  CLOUDY    68  62  81 CALM      30.03F
LAKE ELMO      CLOUDY    70  64  83 SE6       30.05F
$$
MNZ001>005-007-008-013>017-022>024-027-028-301500-
   Northwest Minnesota

CITY           SKY/WX    TMP DP  RH WIND       PRES   REMARKS
BEMIDJI        PTSUNNY   66  59  77 S3        30.04S
HALLOCK        PTSUNNY   66  63  88 SE7       29.95F
ROSEAU         MOSUNNY   70  63  78 S7        29.99S
WARROAD        MOSUNNY   66  63  88 S5        29.99F
THIEF RVR FALL CLOUDY    66  62  87 SW6       30.01R
CROOKSTON      CLOUDY    66  64  94 SE5       29.99F
FOSSTON        CLOUDY    63  61  94 S6        30.03S
DETROIT LAKES  CLOUDY    64  61  88 SE7       30.04S
MOORHEAD       SUNNY     70  61  73 S9        29.99S
PARK RAPIDS    PTSUNNY   67  58  72 SE7       30.04S
MAHNOMEN       CLOUDY    65  63  91 NE3       30.02S
$$
MNZ006-009>011-018-025>026-301500-
   North Central Minnesota

CITY           SKY/WX    TMP DP  RH WIND       PRES   REMARKS
BAUDETTE       SUNNY     69  63  81 S8        30.00F
FLAG ISLAND    SUNNY     73  61  64 S3        29.98S
INTL FALLS     MOSUNNY   66  57  72 VRB5      30.04F
WASKISH        PTSUNNY   68  61  77 CALM      30.02F
BIG FORK       SUNNY     66  57  72 S6        30.06S
LONGVILLE      MOSUNNY   66  61  82 S3        30.05F
GRAND RAPIDS   SUNNY     62  56  80 SE5       30.09S
CRANE LAKE     CLOUDY    63  55  77 S3        30.08S
ORR            SUNNY     63  54  72 CALM      30.05S
COOK           SUNNY     63  55  77 CALM      30.08S
WALKER         FAIR      67  58  73 S3        30.05S
$$
MNZ012-019>021-037-301500-
   Northeast Minnesota

CITY           SKY/WX    TMP DP  RH WIND       PRES   REMARKS
DULUTH         CLOUDY    64  59  83 SE5       30.08S
ELY            MOSUNNY   64  54  68 CALM      30.08S
HIBBING        SUNNY     61  54  77 E5        30.08R
EVELETH        CLOUDY    60  54  79 CALM      30.09S
DULUTH HARBOR  CLOUDY    64  61  88 NE3       30.08S
TWO HARBORS    MOSUNNY   70  61  73 E5        30.06S
SILVER BAY     CLOUDY    66  57  72 CALM      30.07R
GRAND MARAIS     N/A     65  54  67 NE6       30.08
G MARAIS ARPRT SUNNY     64  48  55 E3        30.12R
$$
MNZ029>031-032-039>041-046>048-054>057-064-301500-
   West Central Minnesota

CITY           SKY/WX    TMP DP  RH WIND       PRES   REMARKS
FERGUS FALLS   CLOUDY    66  61  82 S6        30.03S
WHEATON        SUNNY     72  63  73 SE6       30.02F
MORRIS         MOSUNNY   70  63  78 SE7       30.02S
ALEXANDRIA     SUNNY     70  56  61 S6        30.06R
ELBOW LAKE     CLOUDY    69  60  73 SE9       30.03S
WADENA         SUNNY     64  61  88 SE5       30.04S
GLENWOOD       SUNNY     66  59  77 SE3       30.06R
APPLETON       SUNNY     68  61  77 E5        30.02S
BENSON         SUNNY     70  57  64 SW5       30.04S
ORTONVILLE     SUNNY     68  57  68 CALM      30.02S
MADISON        SUNNY     66  59  77 CALM      30.03S
WILLMAR        FAIR      70  61  73 CALM      30.06R
$$
MNZ033>034-036-042>043-049>051-058-059-301500-
   Central Minnesota

CITY           SKY/WX    TMP DP  RH WIND       PRES   REMARKS
ST CLOUD       SUNNY     66  61  84 CALM      30.04F
SAUK CENTRE    FAIR      66  59  76 E5        30.06S
PAYNESVILLE    SUNNY     68  57  68 SE3       30.05F
AITKIN         SUNNY     70  57  64 CALM      30.05S
PINE RIVER     PTSUNNY   64  59  82 SE3       30.09S
BRAINERD       SUNNY     67  59  75 SE6       30.06S
STAPLES        SUNNY     66  57  72 CALM      30.05S
LONG PRAIRIE   FAIR      64  57  77 E6        30.06S
LITTLE FALLS   SUNNY     64  55  72 CALM      30.05S
LITCHFIELD     SUNNY     70  64  83 CALM      30.04S
BUFFALO        SUNNY     66  60  80 CALM      30.05S
MAPLE LAKE     SUNNY     67  64  87 E3        30.05S
HUTCHINSON     PTSUNNY   70  62  78 CALM      30.04S
$$
MNZ037-044-045-052-053-301500-
   East Central Minnesota

CITY           SKY/WX    TMP DP  RH WIND       PRES   REMARKS
PRINCETON      SUNNY     64  61  88 CALM      30.05S
MORA           PTSUNNY   64  59  82 CALM      30.07S
CAMBRIDGE      CLOUDY    70  59  68 E5        30.03F
RUSH CITY      PTSUNNY   64  60  87 CALM      30.06S
MOOSE LAKE     SUNNY     61  59  94 CALM      30.05S
HINCKLEY       FAIR      63  59  88 E3        30.06F
CLOQUET        MOSUNNY   63  57  82 SE5       30.07F
MCGREGOR       SUNNY     64  59  82 E3        30.07S
$$
MNZ071>073-080-081-089-090-097-098-301500-
   Southwest Minnesota

CITY           SKY/WX    TMP DP  RH WIND       PRES   REMARKS
MONTEVIDEO     SUNNY     73  63  68 CALM      30.05S
GRANITE FALLS  SUNNY     67  62  83 CALM      30.06R
CANBY          SUNNY     71  58  64 CALM      30.04S
MARSHALL       SUNNY     68  60  75 S5        30.05R
REDWOOD FALLS  SUNNY     67  57  70 CALM      30.04R
OLIVIA         SUNNY     68  57  68 SE6       30.04R
PIPESTONE      SUNNY     66  61  82 S3        30.06R
WINDOM         SUNNY     68  55  64 CALM      30.05S
WORTHINGTON    SUNNY     67  57  70 CALM      30.07R
JACKSON        SUNNY     66  55  68 CALM      30.06S
TRACY          SUNNY     70  60  72 SW3       30.05S
SLAYTON        SUNNY     67  57  71 S3        30.07R
$$
MNZ065>067-074>077-082>085-091>093-301500-
   South Central Minnesota

CITY           SKY/WX    TMP DP  RH WIND       PRES   REMARKS
MANKATO        SUNNY     70  55  60 CALM      30.04R
NEW ULM        SUNNY     66  59  77 CALM      30.04R
ST JAMES       SUNNY     63  54  72 CALM      30.05S
FAIRMONT       SUNNY     66  57  72 CALM      30.04R
GLENCOE        SUNNY     67  64  87 CALM      30.03S
FARIBAULT      CLOUDY    70  64  83 E3        30.04S
OWATONNA       CLOUDY    70  64  83 CALM      30.04S
WASECA         CLOUDY    68  61  77 CALM      30.05R
ALBERT LEA     CLOUDY    70  64  83 CALM      30.04R
$$
MNZ078>079-086>088-094>096-301500-
   Southeast Minnesota

CITY           SKY/WX    TMP DP  RH WIND       PRES   REMARKS
ROCHESTER      SUNNY     71  65  81 SE7       30.05S
RED WING       PTSUNNY   73  64  73 SE5       30.02F
STANTON        CLOUDY    68  64  88 CALM      30.03S
DODGE CENTER   MOSUNNY   73  64  73 S3        30.04S
WINONA         PTSUNNY   70  61  73 E3        30.03F
AUSTIN         PTSUNNY   70  64  83 E3        30.03S
PRESTON        SUNNY     68  61  79 E6        30.05S
$$
ABBREVIATIONS USED IN REMARKS
   TC - TEMPERATURES IN CELSIUS
  WCI - WIND CHILL INDEX
   HX - HEAT INDEX
  VSB - VISIBILITY
$$




USA.gov is the U.S. government's official web portal to all federal, state and local government web resources and services.